Find Local Weather

World > North America > United States > Kentucky

Elizabethtown, Kentucky Regional Weather

Lat: 37.70N, Lon: 85.87W
Wx Zone: KYZ028
Feedback
Expires:201808142000;;060962
ASUS43 KLMK 141910
RWRKY 
KENTUCKY REGIONAL WEATHER ROUNDUP
NATIONAL WEATHER SERVICE LOUISVILLE KY
300 PM EDT TUE AUG 14 2018

NOTE "FAIR" INDICATES FEW OR NO CLOUDS BELOW 12,000 FEET
WITH NO SIGNIFICANT WEATHER AND/OR OBSTRUCTIONS TO VISIBILITY.


KYZ024-025-028>034-038-045-046-053-142000-
NORTH CENTRAL KENTUCKY
  
CITY           SKY/WX    TMP DP  RH WIND       PRES   REMARKS
LOUISVILLE/SDF FAIR      89  63  41 VRB5      30.01F HX  90           
LOUISVILLE/LOU FAIR      88  63  43 CALM      30.01F                  
FORT KNOX      FAIR      86  64  46 SW5       30.03F                  
$$


SKY/WX - Weather  TMP - Temperature  DP - Dewpoint  RH - Relative Humidity
WIND - Wind Direction/Speed PRES - Barometric Pressure